Regional Weather Roundup
Issued by NWS Goodland, KS

Home | Current Version | Previous Version | Graphics & Text | Print | Product List | Glossary On
Versions: 1 2 3 4 5 6 7 8 9 10 11 12 13 14 15 16 17 18 19 20 21 22 23 24 25 26 27 28 29 30 31 32 33 34 35 36 37 38 39 40 41 42 43 44 45 46 47 48 49 50
000
ASUS43 KGLD 261559
RWRGLD

GOODLAND FORECAST AREA HOURLY WEATHER ROUNDUP
NATIONAL WEATHER SERVICE GOODLAND KS
1000 AM MDT THU MAY 26 2016

...OFFICIAL OBSERVATIONS...

CITY           SKY/WX    TMP DP  RH WIND       PRES   REMARKS
GOODLAND KS    CLOUDY    67  50  54 E14       29.88F
HILL CITY KS   CLOUDY    72  58  61 E15       29.82F
IMPERIAL NEB   MOSUNNY   70  48  45 NE16      29.91F
MCCOOK NEB     CLOUDY    69  53  56 N17       29.89S
AKRON CO       MOSUNNY   64  39  39 NE7       29.95F
BURLINGTON CO  MOSUNNY   71  48  43 NE17      29.90F
LIMON CO       MOSUNNY   63  45  51 E7        29.96F
$$

...UNOFFICIAL OBSERVATIONS...

CITY           SKY/WX    TMP DP  RH WIND       PRES   REMARKS
GOVE KS          N/A     64  32  30 MISG        N/A
LENORA KS        N/A     69  32  25 MISG        N/A
SHARON SPRINGS   N/A     62  57  84 NE8         N/A
KIT CARSON CO    N/A     64  54  71 MISG        N/A
YUMA CO          N/A     66  49  55 NE7         N/A
$$




USA.gov is the U.S. government's official web portal to all federal, state and local government web resources and services.